sat.trackr.live / text

‹ back to catalog

STARLINK-30893

NORAD 58724 · 2024-002V

PAYLOAD ACTIVE UNKNOWN

§ Identity

Operator
Country
US
Launch date
2024-01-03
Launch site
AFWTR
Launch vehicle
Mass (kg)
RCS (m²)

Purposes: comms

External: N2YO · Heavens-Above · Gunter

§ Orbital elements

Epoch: 2026-05-24T23:06:01.677888Z

Period
93.85 min
Inclination
53.1590°
Eccentricity
0.0000813
Mean motion
15.34394418 rev/d
Perigee alt
462.2 km
Apogee alt
463.3 km
Semi-major
6,840.9 km
B*
3.4548e-5
RAAN
235.6151°
Arg perigee
97.2310°
Mean anomaly
262.8785°
Rev number
13,368

§ Raw data

STARLINK-308931 58724U 24002V   26144.96251942  .00000791  00000+0  34548-4 0  99932 58724  53.1590 235.6151 0000813  97.2310 262.8785 15.34394418133689

JSON: /api/v1/satellites/58724 · /tle

For live sub-satellite position, see the globe view (requires WebGL).

§ Visibility from observer

Set your observer location to see the next 7 days of passes ≥ 10°. The values pass through the URL so the page stays shareable.

No JS? Fill the form by hand. The geolocation button needs JavaScript.